Regional Weather Roundup
Issued by NWS State College, PA

Home | Current Version | Previous Version | Text Only | Print | Product List | Glossary On
Versions: 1 2 3 4 5 6 7 8 9 10 11 12 13 14 15 16 17 18 19 20 21 22 23 24 25 26 27 28 29 30 31 32 33 34 35 36 37 38 39 40 41 42 43 44 45 46 47 48 49 50
000
ASUS41 KCTP 271210
RWRCTP

REGIONAL WEATHER ROUNDUP
NATIONAL WEATHER SERVICE STATE COLLEGE PA
800 AM EDT MON APR 27 2015

Note: "fair" indicates few or no clouds below 12,000 feet with no
significant weather and/or obstructions to visibility.

* = STATION THAT DOES NOT REPORT PRECIPITATION /E.G. RAIN...SNOW...ETC/
    THUNDER OR FOG.

PAZ002>004-007>009-013>016-020>023-029>032-271300-
WESTERN PENNSYLVANIA

CITY           SKY/WX    TMP DP  RH WIND       PRES   REMARKS
ERIE           CLOUDY    39  35  86 VRB5      29.85R
MEADVILLE      CLOUDY    37  34  89 W7        29.83R
FRANKLIN*      CLOUDY    37  30  75 NW9       29.83S
NEW CASTLE     PTSUNNY   38  34  85 NW7       29.87R
BEAVER COUNTY  NOT AVBL
BUTLER*        MOSUNNY   39  34  81 NW5       29.85S
PITTSBURGH INT MOSUNNY   39  32  76 NW10      29.85R
PITTSBURGH     SUNNY     39  29  67 NW7       29.83R
INDIANA*       CLOUDY    41  34  75 VRB5      29.85R
LATROBE        PTSUNNY   39  34  81 CALM      29.85R
WASHINGTON CO* SUNNY     39  30  70 NW3       29.87S
$$

PAZ004>006-010>012-017>019-024>028-033>037-041-042-045-046-049>053-271300-
CENTRAL PENNSYLVANIA

CITY           SKY/WX    TMP DP  RH WIND       PRES   REMARKS
BRADFORD       CLOUDY    38  31  76 NW9       29.76R
DUBOIS         CLOUDY    40  32  73 NW7       29.77R
CLEARFIELD     CLOUDY    41  31  67 NW7       29.78R
JOHNSTOWN      CLOUDY    38  31  76 W10       29.77R
ALTOONA        CLOUDY    43  33  68 NW8       29.78R
STATE COLLEGE  SUNNY     45  32  61 W8        29.77R
WILLIAMSPORT   CLOUDY    47  32  56 W8        29.75R
SELINSGROVE    CLOUDY    47  34  60 NW7       29.77R
FT INDIANTOWN  PTSUNNY   49  31  50 VRB6      29.74S
CAPITAL CITY   CLOUDY    47  34  60 W6        29.76R
HARRISBURG     CLOUDY    48  34  58 NW8       29.76R
YORK           CLOUDY    45  35  68 W3        29.76R
$$

PAZ038>040-043-044-047-048-054-055-060>062-067>071-271300-
EASTERN PENNSYLVANIA

CITY           SKY/WX    TMP DP  RH WIND       PRES   REMARKS
SCRANTON       CLOUDY    44  32  62 NW6       29.73R
MOUNT POCONO   CLOUDY    41  32  70 NW9       29.68R
ALLENTOWN      CLOUDY    48  33  56 NW7       29.72S
QUAKERTOWN*    CLOUDY    46  32  57 NW5       29.73R
READING        PTSUNNY   47  34  60 NW3       29.73R
LANCASTER      CLOUDY    44  35  70 W6        29.74S
COATESVILLE    CLOUDY    46  34  61 W7        29.74S
POTTSTOWN      CLOUDY    46  33  60 W5        29.74S
BLUE BELL      MOSUNNY   50  34  53 NW3       29.72S
DOYLESTOWN     CLOUDY    46  50 100 NW7       29.71R
WILLOW GROVE   NOT AVBL
NORTH PHILA    PTSUNNY   52  31  44 NW13      29.73S
PHILADELPHIA   PTSUNNY   50  31  48 N8        29.73S
$$



USA.gov is the U.S. government's official web portal to all federal, state and local government web resources and services.